2023/02/09 00:00:00,31.8,-0.2
2023/02/09 00:10:00,31.5, 0.3
2023/02/09 00:20:00,31.5, 0.2
2023/02/09 00:30:00,31.5, 0.6
2023/02/09 00:40:00,31.4, 0.7
2023/02/09 00:50:00,31.3, 0.5
2023/02/09 01:00:00,31.3, 0.4
2023/02/09 01:10:00,31.1, 0.7
2023/02/09 01:20:00,31.1, 0.6
2023/02/09 01:30:00,31.0, 0.4
2023/02/09 01:40:00,31.3, 0.5
2023/02/09 01:50:00,31.4, 0.4
2023/02/09 02:00:00,31.4, 0.5
2023/02/09 02:10:00,31.5, 0.4
2023/02/09 02:20:00,31.5, 0.4
2023/02/09 02:30:00,31.6, 0.2
2023/02/09 02:40:00,31.5, 0.5
2023/02/09 02:50:00,31.8, 0.4
2023/02/09 03:00:00,32.1, 0.6
2023/02/09 03:10:00,32.0, 0.4
2023/02/09 03:20:00,32.1, 0.4
2023/02/09 03:30:00,32.3, 0.1
2023/02/09 03:40:00,32.2, 0.2
2023/02/09 03:50:00,32.3, 0.2
2023/02/09 04:00:00,32.3, 0.0
2023/02/09 04:10:00,32.2, 0.1
2023/02/09 04:20:00,32.2, 0.0
2023/02/09 04:30:00,32.5, 0.0
2023/02/09 04:40:00,32.5, 0.0
2023/02/09 04:50:00,32.5, 0.0
2023/02/09 05:00:00,32.5, 0.0
2023/02/09 05:10:00,32.5, 0.0
2023/02/09 05:20:00,32.4, 0.2
2023/02/09 05:30:00,32.4, 0.1
2023/02/09 05:40:00,32.4, 0.1
2023/02/09 05:50:00,32.3, 0.1
2023/02/09 06:00:00,32.4, 0.0
2023/02/09 06:10:00,32.4, 0.0
2023/02/09 06:20:00,32.5,-0.4
2023/02/09 06:30:00,32.3,-0.5
2023/02/09 06:40:00,32.8,-0.2
2023/02/09 06:50:00,32.7,-0.1
2023/02/09 07:00:00,32.8, 0.0
2023/02/09 07:10:00,32.7, 0.3
2023/02/09 07:20:00,32.8, 0.2
2023/02/09 07:30:00,32.7, 0.5
2023/02/09 07:40:00,32.7, 0.4
2023/02/09 07:50:00,32.8, 0.5
2023/02/09 08:00:00,32.9, 0.6
2023/02/09 08:10:00,32.8, 0.7
2023/02/09 08:20:00,32.8, 0.9
2023/02/09 08:30:00,33.0, 1.5
2023/02/09 08:40:00,32.8, 4.3
2023/02/09 08:50:00,32.8, 3.5
2023/02/09 09:00:00,32.8, 4.4
2023/02/09 09:10:00,32.8, 5.3
2023/02/09 09:20:00,32.6, 5.1
2023/02/09 09:30:00,32.8, 3.9
2023/02/09 09:40:00,32.6, 1.8
2023/02/09 09:50:00,32.6, 1.8
2023/02/09 10:00:00,32.7, 1.5
2023/02/09 10:10:00,32.6, 1.7
2023/02/09 10:20:00,32.6, 2.3
2023/02/09 10:30:00,32.6, 3.1
2023/02/09 10:40:00,32.6, 2.6
2023/02/09 10:50:00,32.6, 2.7
2023/02/09 11:00:00,32.6, 3.0
2023/02/09 11:10:00,32.7, 3.2
2023/02/09 11:20:00,32.5, 6.2
2023/02/09 11:30:00,32.5, 6.2
2023/02/09 11:40:00,32.4, 6.0
2023/02/09 11:50:00,32.2, 3.1
2023/02/09 12:00:00,31.9, 3.5
2023/02/09 12:10:00,---, 5.7
2023/02/09 12:20:00,88.6, 6.6
2023/02/09 12:30:00,112.3, 5.7
2023/02/09 12:40:00,55.6, 6.7
2023/02/09 12:50:00,79.4, 4.9
2023/02/09 13:00:00,111.5, 4.4
2023/02/09 13:10:00,30.6, 3.3
2023/02/09 13:20:00,30.7, 3.7
2023/02/09 13:30:00,30.6, 3.0
2023/02/09 13:40:00,30.3, 3.6
2023/02/09 13:50:00,71.1, 3.5
2023/02/09 14:00:00,30.8, 3.9
2023/02/09 14:10:00,30.6, 3.7
2023/02/09 14:20:00,111.4, 4.4
2023/02/09 14:30:00,111.4, 4.5
2023/02/09 14:40:00,78.9, 4.3
2023/02/09 14:50:00,111.6, 3.9
2023/02/09 15:00:00,---, 4.7
2023/02/09 15:10:00,---, 5.0
2023/02/09 15:20:00,30.1, 4.1
2023/02/09 15:30:00,29.7, 3.1
2023/02/09 15:40:00,29.8, 3.7
2023/02/09 15:50:00,30.5, 5.0
2023/02/09 16:00:00,30.4, 6.4
2023/02/09 16:10:00,30.3, 5.9
2023/02/09 16:20:00,29.9, 6.0
2023/02/09 16:30:00,29.9, 6.1
2023/02/09 16:40:00,29.8, 5.5
2023/02/09 16:50:00,29.7, 5.6
2023/02/09 17:00:00,29.4, 4.9
2023/02/09 17:10:00,29.2, 3.3
2023/02/09 17:20:00,29.2, 2.4
2023/02/09 17:30:00,29.2, 2.2
2023/02/09 17:40:00,29.2, 0.5
2023/02/09 17:50:00,29.3,-0.2
2023/02/09 18:00:00,29.2,-0.4
2023/02/09 18:10:00,29.3,-0.9
2023/02/09 18:20:00,29.2,-1.0
2023/02/09 18:30:00,29.2,-1.1
2023/02/09 18:40:00,29.2,-1.2
2023/02/09 18:50:00,29.2,-1.1
2023/02/09 19:00:00,29.2,-0.9
2023/02/09 19:10:00,29.2,-0.5
2023/02/09 19:20:00,29.2,-0.4
2023/02/09 19:30:00,29.2,-0.6
2023/02/09 19:40:00,29.2,-0.4
2023/02/09 19:50:00,29.2,-0.3
2023/02/09 20:00:00,29.2,-0.5
2023/02/09 20:10:00,29.2,-1.0
2023/02/09 20:20:00,29.2,-0.8
2023/02/09 20:30:00,29.2,-0.7
2023/02/09 20:40:00,29.2,-0.7
2023/02/09 20:50:00,29.2,-1.0
2023/02/09 21:00:00,29.2,-0.9
2023/02/09 21:10:00,29.1,-0.7
2023/02/09 21:20:00,29.1,-1.0
2023/02/09 21:30:00,29.2,-1.1
2023/02/09 21:40:00,29.2,-1.2
2023/02/09 21:50:00,29.2,-1.1
2023/02/09 22:00:00,29.2,-0.8
2023/02/09 22:10:00,29.1,-1.1
2023/02/09 22:20:00,29.1,-0.8
2023/02/09 22:30:00,29.1,-0.9
2023/02/09 22:40:00,29.2,-1.1
2023/02/09 22:50:00,29.1,-1.1
2023/02/09 23:00:00,29.2,-0.7
2023/02/09 23:10:00,29.1,-0.4
2023/02/09 23:20:00,29.0,-0.7
2023/02/09 23:30:00,29.0,-0.7
2023/02/09 23:40:00,29.0,-0.8
2023/02/09 23:50:00,29.0,-0.4
